EW3803 Weather Reports


time (UTC)temp
C
wind
direction
speed
KPH
gust
KPH
rain 1hr
cm
rain 24hr
cm
rain mn
cm
humidity
%
barometer
mb
20180221225407 10 47 3.2 8.0 0.00 0.00 0.00 70 1009.2
20180221223904 10 55 3.2 8.0 0.00 0.00 0.00 76 1009.2
20180221222405 10 65 4.8 12.9 0.00 0.00 0.00 83 1009.4
20180221220908 10 96 6.4 12.9 0.00 0.00 0.00 90 1009.4
20180221215403 10 70 6.4 9.7 0.00 0.00 0.00 91 1009.4
20180221213902 11 80 4.8 14.5 0.00 0.00 0.00 91 1009.3
20180221212403 11 59 8.0 14.5 0.00 0.00 0.00 92 1009.3
20180221210900 11 53 6.4 9.7 0.00 0.00 0.00 93 1009.1
20180221205401 11 351 3.2 6.4 0.00 0.00 0.00 92 1008.9
20180221203903 11 9 4.8 6.4 0.00 0.00 0.00 92 1008.8
20180221202401 11 14 4.8 8.0 0.00 0.00 0.00 92 1008.8
20180221200858 11 351 3.2 9.7 0.00 0.00 0.00 92 1008.7
20180221195500 11 351 4.8 16.1 0.00 0.00 0.00 92 1008.7
20180221193856 11 346 4.8 12.9 0.00 0.00 0.00 91 1008.6
20180221192356 11 351 9.7 19.3 0.00 0.00 0.00 91 1008.7
20180221190854 12 15 8.0 17.7 0.00 0.00 0.00 90 1008.6
20180221185354 12 34 8.0 17.7 0.00 0.00 0.00 90 1008.6
20180221183854 12 348 12.9 19.3 0.00 0.00 0.00 89 1008.5
20180221182353 12 327 12.9 24.1 0.00 0.00 0.00 88 1008.4
20180221180853 12 342 16.1 25.7 0.00 0.00 0.00 87 1008.3
20180221175353 12 333 11.3 27.4 0.00 0.00 0.00 86 1008.1
20180221173852 13 288 14.5 29.0 0.00 0.00 0.00 84 1008.0
20180221172351 13 285 12.9 27.4 0.00 0.00 0.00 82 1007.9
20180221170853 13 278 17.7 29.0 0.00 0.00 0.00 80 1007.9
20180221165351 14 293 17.7 27.4 0.00 0.00 0.00 77 1007.9
20180221163849 14 304 20.9 30.6 0.00 0.00 0.00 77 1007.9
20180221162347 14 320 16.1 29.0 0.00 0.00 0.00 77 1007.9
20180221160846 15 296 14.5 27.4 0.00 0.00 0.00 75 1008.0
20180221155344 15 300 17.7 27.4 0.00 0.00 0.00 70 1008.0
20180221153842 15 284 14.5 24.1 0.00 0.00 0.00 71 1008.0
20180221152342 15 319 16.1 27.4 0.00 0.00 0.00 73 1008.1
20180221150839 15 331 14.5 24.1 0.00 0.00 0.00 72 1008.4
20180221145335 14 299 17.7 27.4 0.00 0.00 0.00 68 1008.6
20180221143833 15 304 14.5 25.7 0.00 0.00 0.00 70 1008.7
20180221142333 15 305 14.5 27.4 0.00 0.00 0.00 64 1008.9
20180221140829 15 349 17.7 25.7 0.00 0.00 0.00 61 1009.1
20180221135327 15 327 14.5 24.1 0.00 0.00 0.00 63 1009.3
20180221133822 15 325 19.3 27.4 0.00 0.00 0.00 63 1009.6
20180221132318 15 331 17.7 25.7 0.00 0.00 0.00 63 1009.9
20180221130815 14 339 16.1 27.4 0.00 0.00 0.00 66 1010.2
20180221125315 13 28 17.7 27.4 0.00 0.00 0.00 69 1010.4
20180221123810 13 360 19.3 27.4 0.00 0.00 0.00 69 1010.7
20180221122309 13 351 16.1 27.4 0.00 0.00 0.00 72 1011.0
20180221120803 13 330 17.7 27.4 0.00 0.00 0.00 73 1011.2
20180221115300 13 330 16.1 25.7 0.00 0.00 0.00 74 1011.4
20180221113758 13 351 17.7 24.1 0.00 0.00 0.00 74 1011.5
20180221112255 12 9 12.9 17.7 0.00 0.00 0.00 74 1011.5
20180221110756 12 337 12.9 20.9 0.00 0.00 0.00 74 1011.8
20180221105253 12 317 9.7 14.5 0.00 0.00 0.00 75 1011.7
20180221103751 12 311 6.4 16.1 0.00 0.00 0.00 73 1011.8
20180221102246 11 351 8.0 17.7 0.00 0.00 0.00 75 1012.1
20180221100745 11 14 11.3 16.1 0.00 0.00 0.00 78 1012.2
20180221095240 11 348 12.9 19.3 0.00 0.00 0.00 80 1012.2
20180221093739 11 326 8.0 16.1 0.00 0.00 0.00 81 1012.1
20180221092240 10 43 1.6 8.0 0.00 0.00 0.00 83 1012.1
20180221090736 8 29 6.4 9.7 0.00 0.00 0.00 84 1012.2
20180221085237 8 44 3.2 8.0 0.00 0.00 0.00 85 1012.1
20180221083737 7 29 4.8 9.7 0.00 0.00 0.00 85 1012.0
20180221082236 7 43 4.8 12.9 0.00 0.00 0.00 85 1012.0
20180221080734 7 49 4.8 8.0 0.00 0.00 0.00 86 1011.9
20180221075232 7 54 4.8 9.7 0.00 0.00 0.00 87 1011.7
20180221073731 7 49 4.8 8.0 0.00 0.00 0.00 86 1011.4
20180221072230 7 51 4.8 8.0 0.00 0.00 0.00 85 1011.4
20180221070728 7 49 4.8 9.7 0.00 0.00 0.00 84 1011.3
20180221065328 7 34 6.4 9.7 0.00 0.00 0.00 82 1011.4
20180221063725 7 44 6.4 9.7 0.00 0.00 0.00 80 1011.6
20180221062221 7 36 8.0 11.3 0.00 0.00 0.00 79 1011.6
20180221060721 8 43 6.4 9.7 0.00 0.00 0.00 80 1011.6
20180221055222 8 44 8.0 14.5 0.00 0.00 0.00 82 1011.7
20180221053720 8 31 6.4 12.9 0.00 0.00 0.00 82 1011.8
20180221052218 8 28 8.0 14.5 0.00 0.00 0.00 83 1011.9
20180221050714 8 360 4.8 8.0 0.00 0.00 0.00 82 1011.9
20180221045215 8 34 8.0 9.7 0.00 0.00 0.00 81 1012.0
20180221043712 8 48 4.8 8.0 0.00 0.00 0.00 82 1012.0
20180221042209 8 51 6.4 8.0 0.00 0.00 0.00 84 1012.2
20180221040709 8 44 4.8 12.9 0.00 0.00 0.00 86 1012.3
20180221035206 8 36 6.4 11.3 0.00 0.00 0.00 87 1012.5
20180221033702 8 22 8.0 9.7 0.00 0.00 0.00 88 1012.6
20180221032202 9 46 6.4 11.3 0.00 0.00 0.00 89 1012.8
20180221030657 9 38 6.4 9.7 0.00 0.00 0.00 88 1012.9
20180221025156 9 34 6.4 8.0 0.00 0.00 0.00 88 1013.1
20180221023654 9 23 4.8 6.4 0.00 0.00 0.00 89 1013.3
20180221022152 9 40 4.8 8.0 0.00 0.00 0.00 89 1013.5
20180221020652 9 24 6.4 9.7 0.00 0.00 0.00 89 1013.6
20180221015149 9 19 6.4 8.0 0.00 0.00 0.00 89 1013.7
20180221013647 9 351 3.2 8.0 0.00 0.00 0.00 87 1013.7
20180221012144 10 9 3.2 8.0 0.00 0.00 0.00 87 1014.0
20180221010641 10 16 4.8 9.7 0.00 0.00 0.00 87 1014.1
20180221005139 10 348 4.8 9.7 0.00 0.00 0.00 86 1014.4
20180221003637 10 347 6.4 12.9 0.00 0.00 0.00 86 1014.5
20180221002138 10 351 6.4 12.9 0.00 0.00 0.00 85 1014.6
20180221000636 10 351 6.4 8.0 0.00 0.00 0.00 82 1014.7
20180220235130 10 360 6.4 9.7 0.00 0.00 0.00 81 1014.9
20180220233627 10 34 4.8 12.9 0.00 0.00 0.00 82 1015.0
20180220232127 11 47 8.0 14.5 0.00 0.00 0.00 81 1015.0
20180220230626 11 10 9.7 16.1 0.00 0.00 0.00 80 1015.2